Terminal Aerodrome Forecast
Issued by NWS

Home | Current Version | Previous Version | Graphics & Text | Print | Product List | Glossary On
Versions: 1 2 3 4 5 6 7 8 9 10 11 12 13 14 15 16 17 18 19 20 21
000
FTUS43 KFGF 010745 AAA
TAFBJI
TAF AMD
KBJI 010745Z 0108/0206 VRB06KT 5SM BR SCT250
      TEMPO 0108/0112 1/2SM FG VV005
     FM011400 21007KT P6SM SKC=

USA.gov is the U.S. government's official web portal to all federal, state and local government web resources and services.